Location: Central Falls
(41.8900°N, 71.3929°W)
Time: 11:44:06
(UTC+00:00)

A-11 Canister half - Pass Details

Date: 07 December 2023
Orbit: 1512 x 1687 km, 47.2° (Epoch: 20 February)

Event Time Altitude Azimuth Distance (km) Brightness Sun altitude
Rises 11:15:42 0° 297° (WNW) 4,878 - -8.1°
Exits shadow 11:18:32 - 292° (WNW) 4,040 10.5 -7.6°
Reaches altitude 10° 11:19:00 10° 291° (WNW) 3,908 10.4 -7.5°
Maximum altitude 11:28:15 44° 224° (SW) 2,202 9.7 -6.0°
Drops below altitude 10° 11:37:37 10° 157° (SSE) 3,942 12.0 -4.4°
Sets 11:40:58 0° 151° (SSE) 4,923 12.7 -3.8°
